www.pogodaiklimat.ru

Погода и климат >> Архив погоды >> Индия >> Западная Бенгалия >> Колката аэропорт


АРХИВ ПОГОДЫ в Колката аэропорту

Время (UTC), дата Ветер
(напр.,м/с)
 
Видим.   Явления Облачность Т
(С)
Тd
(С)
f
(%)
Тe
(С)
Тes
(С)
Комфортность P
(гПа)
Po
(гПа)
Тmin
(С)
Tmax
(С)
R
(мм)
R24
(мм)
S
(см)
06 17.07 СВ 1 2000 м мгла 8/8 540 м
[Sc diur, vesp Ac trans]
+34.6 +25.7 60 +50 +55 опасность
перегрева
1001.5 1000.8
09 17.07 штиль 0 2000 м мгла 4/4 540 м
[Sc diur, vesp]
+36.2 +26.3 57 +52 +63 опасность
перегрева
999.4 998.7
12 17.07 Ю 2 2000 м мгла 3/3 540 м
[Sc diur, vesp]
+35.0 +24.2 54 +47 +48 опасность
перегрева
998.3 997.6 +36.7
15 17.07 СВ 1 2000 м мгла 9/4 540 м
[Cb calv Ac trans]
+32.6 +26.2 69 +49 +49 опасность
перегрева
1001.5 1000.8
18 17.07 ЮЗ 1 2000 м мгла 6/1 540 м
[Sc Ac trans]
+31.0 +27.1 80 +49 +49 опасность
перегрева
1001.8 1001.1
21 17.07 ЮЗ 1 2000 м мгла 3/3 540 м
[Sc]
+30.2 +27.2 84 +48 +48 опасность
перегрева
1001.4 1000.7
00 18.07 штиль 0 2000 м мгла 6/3 600 м
[Sc diur, vesp Ac trans]
+29.4 +27.5 90 +48 +48 опасность
перегрева
1001.0 1000.3
03 18.07 штиль 0 2000 м мгла 4/4 540 м
[Sc]
+32.4 +27.8 77 +53 +62 опасность
перегрева
1002.0 1001.3 +29.0
06 18.07 СВ 2 2000 м мгла 8/6 540 м
[Sc diur, vesp Ac trans]
+34.0 +25.3 61 +48 +55 опасность
перегрева
1001.4 1000.7
09 18.07 В 2 2000 м мгла 8/6 540 м
[Sc diur, vesp Ac trans]
+35.0 +25.8 59 +50 +54 опасность
перегрева
999.5 998.8
12 18.07 В 2 2000 м мгла 6/5 540 м
[Sc diur, vesp Ac trans]
+33.8 +26.0 64 +50 +50 опасность
перегрева
999.0 998.3 +35.8
15 18.07 Ю 2 2000 м мгла 3/3 540 м
[Sc]
+30.8 +26.6 78 +47 +47 опасность
перегрева
1001.4 1000.7
18 18.07 Ю 1 2000 м мгла 3/3 540 м
[Sc]
+29.6 +26.0 81 +44 +44 опасность
перегрева
1002.4 1001.7
21 18.07 Ю 1 2000 м мгла 8/6 540 м
[Sc diur, vesp Ac trans]
+28.8 +26.3 86 +44 +44 опасность
перегрева
1001.7 1001.0
00 19.07 СВ 1 2000 м мгла 8/5 540 м
[Sc Ac trans]
+28.4 +27.0 92 +45 +45 опасность
перегрева
1002.0 1001.3
03 19.07 В 2 2000 м мгла 8/6 540 м
[Sc diur, vesp Ac trans]
+32.0 +26.1 71 +48 +51 опасность
перегрева
1002.9 1002.2 +27.7
06 19.07 В 2 2000 м мгла 6/6 540 м
[Sc diur, vesp]
+34.8 +25.3 58 +49 +58 опасность
перегрева
1002.4 1001.7
09 19.07 Ю 2 2000 м мгла 8/4 540 м
[Sc Ac trans]
+35.6 +24.9 54 +49 +54 опасность
перегрева
1000.7 1000.0
12 19.07 В 2 2000 м мгла 4/1 600 м
[Sc diur, vesp Ac trans]
+34.4 +24.5 56 +47 +47 опасность
перегрева
1000.0 999.3 +36.4
15 19.07 ЮВ 2 2000 м мгла ясно +30.6 +24.6 70 +43 +43 опасность
перегрева
1002.4 1001.7
18 19.07 Ю 2 2000 м мгла 3/3 540 м
[Sc]
+29.6 +26.2 82 +45 +45 опасность
перегрева
1003.1 1002.4
21 19.07 штиль 0 2000 м мгла 4/4 540 м
[Sc]
+28.4 +26.2 88 +43 +43 опасность
перегрева
1003.0 1002.3
00 20.07 штиль 0 2000 м дымка 3/3 540 м
[Sc diur, vesp]
+28.6 +26.6 89 +44 +45 опасность
перегрева
1003.5 1002.8
03 20.07 В 2 2000 м мгла 9/4 540 м
[Sc Ac trans]
+31.4 +26.7 76 +48 +52 опасность
перегрева
1005.0 1004.3 +28.0
06 20.07 ЮВ 2 2000 м мгла 6/3 600 м
[Sc diur, vesp Ac trans]
+35.4 +24.7 54 +48 +61 опасность
перегрева
1004.4 1003.7
09 20.07 Ю 3 2000 м мгла 8/8 540 м
[Sc diur, vesp Ac trans]
+36.8 +26.9 57 +54 +56 опасность
перегрева
1002.3 1001.6
12 20.07 Ю 2 2000 м мгла 6/6 540 м
[Cb calv]
+33.8 +26.6 66 +51 +51 опасность
перегрева
1001.3 1000.6 +37.6
15 20.07 Ю 2 2000 м мгла 4/4 540 м
[Sc]
+31.0 +26.0 75 +46 +46 опасность
перегрева
1003.6 1002.9
18 20.07 Ю 3 2000 м мгла 4/4 540 м
[Sc]
+29.8 +26.2 81 +45 +45 опасность
перегрева
1004.3 1003.6
21 20.07 Ю 2 2000 м мгла 4/4 540 м
[Sc]
+29.0 +26.2 85 +44 +44 опасность
перегрева
1003.3 1002.6
00 21.07 Ю 1 2000 м мгла 6/4 540 м
[Sc Ac As]
+29.0 +26.8 88 +45 +45 опасность
перегрева
1003.7 1003.0 10
03 21.07 Ю 2 2000 м мгла 8/5 540 м
[Sc Ac trans]
+32.0 +26.4 72 +48 +52 опасность
перегрева
1005.5 1004.8 +28.6
06 21.07 Ю 3 2000 м мгла 8/8 540 м
[Sc diur, vesp Ac trans]
+36.0 +26.3 58 +53 +56 опасность
перегрева
1004.3 1003.6
09 21.07 ЮВ 2 2000 м мгла 5/5 540 м
[Sc diur, vesp]
+36.6 +23.8 48 +48 +54 опасность
перегрева
1001.9 1001.2
12 21.07 Ю 2 2000 м мгла 6/5 540 м
[Sc diur, vesp Ac trans]
+34.6 +22.8 50 +44 +44 опасность
перегрева
1001.3 1000.6 +37.6
15 21.07 Ю 2 2000 м мгла 3/3 600 м
[Sc diur, vesp]
+31.4 +26.7 76 +48 +48 опасность
перегрева
1003.1 1002.4
18 21.07 ЮЗ 1 2000 м мгла 4/4 540 м
[Sc]
+30.0 +26.4 81 +46 +46 опасность
перегрева
1004.1 1003.4
21 21.07 Ю 1 2000 м мгла 6/3 540 м
[Sc Ac trans]
+29.4 +26.8 86
00 22.07 З 2 2000 м мгла 9/4 540 м
[Sc Ac As]
+29.2 +26.7 86 +45 +45 опасность
перегрева
1003.1 1002.4
03 22.07 Ю 2 2000 м мгла 8/6 540 м
[Sc diur, vesp Ac trans]
+31.8 +26.2 72 +48 +51 опасность
перегрева
1004.4 1003.7 +28.8
06 22.07 З 2 2000 м мгла 8/8 540 м
[Sc diur, vesp]
+35.4 +25.0 55 +49 +53 опасность
перегрева
1003.5 1002.8
09 22.07 Ю 3 2000 м слаб. дождь 9/6 540 м
[Sc diur, vesp As op]
+32.6 +28.8 80 +55 +57 опасность
перегрева
1001.2 1000.5 1
12 22.07 Ю 3 2000 м мгла {дождь} 6/4 540 м
[Sc Ac trans]
+33.0 +26.0 67 +49 +49 опасность
перегрева
1001.5 1000.8 +36.7 2
15 22.07 Ю 3 2000 м мгла 5/4 540 м
[Sc Ac trans]
+30.6 +26.4 78 +47 +47 опасность
перегрева
1003.6 1002.9 2
18 22.07 Ю 2 2000 м мгла 6/4 540 м
[Sc Ac trans]
+29.8 +26.7 83 +46 +46 опасность
перегрева
1003.2 1002.5 2
21 22.07 Ю 2 2000 м мгла 8/5 540 м
[Sc Ac trans]
+29.4 +26.3 83 +45 +45 опасность
перегрева
1002.7 1002.0 2
00 23.07 Ю 2 2000 м мгла 9/5 540 м
[Sc Ac As]
+29.0 +26.5 86 +44 +45 опасность
перегрева
1002.7 1002.0 2
03 23.07 Ю 2 2000 м мгла 9/5 540 м
[Sc Ac trans]
+32.8 +26.7 70 +50 +53 опасность
перегрева
1003.4 1002.7 +28.6 2
06 23.07 Ю 2 2000 м мгла 9/6 540 м
[Sc diur, vesp Ac trans]
+35.6 +26.5 59 +52 +57 опасность
перегрева
1002.2 1001.5
09 23.07 ЮВ 1 2000 м мгла 8/4 540 м
[Sc diur, vesp Ac trans]
+36.4 +24.6 51 +49 +54 опасность
перегрева
1000.0 999.3
12 23.07 З 2 2000 м мгла 6/3 540 м
[Sc Ac trans]
+33.4 +25.6 64 +48 +49 опасность
перегрева
1000.0 999.3 +36.8
15 23.07 ЮВ 2 2000 м мгла 4/0
[Ac trans]
+30.4 +25.0 73 +44 +44 опасность
перегрева
1002.3 1001.6
18 23.07 Ю 2 2000 м мгла 4/3 540 м
[Sc Ac trans]
+29.6 +26.0 81 +44 +44 опасность
перегрева
1002.5 1001.8
21 23.07 Ю 2 2000 м мгла 8/4 540 м
[Sc Ac trans]
+29.0 +25.9 83 +43 +43 опасность
перегрева
1000.9 1000.2
00 24.07 Ю 2 2000 м мгла 6/4 540 м
[Sc Ac trans]
+28.8 +26.6 88 +45 +45 опасность
перегрева
1001.5 1000.8
03 24.07 Ю 2 2000 м мгла 9/4 540 м
[Sc Ac trans]
+32.0 +27.0 75 +50 +54 опасность
перегрева
1002.6 1001.9 +28.4

 

Местоположение метеостанции Колката аэропорт (Западная Бенгалия, Индия): широта 22.65 долгота 88.45 высота над уровнем моря 6 м.

В архиве по умолчанию представлена погода в Колката аэропорту за последнюю неделю. Архивные данные за месяц целиком и за предыдущие месяцы, начиная с января 2011 года, Вы можете получить, выбрав интересующий диапазон дат из раскрывающегося списка и нажав кнопку "Ввод!".


*Определитесь, кто Вы:
робот инопланетянин человек

Внимание! Время в таблицах - всемирное. Для получения местного времени необходимо прибавить поправку, которая равна 5.5 ч.

Смотрите также архив погоды в соседних городах и на ближайших метеорологических станциях:

Погода в Колкате (Западная Бенгалия, Индия) (18 км)
Погода в Багати (Западная Бенгалия, Индия) (38 км)
Погода в Бейсирхэте (Западная Бенгалия, Индия) (43 км)
Погода в Каннинге (Западная Бенгалия, Индия) (50 км)
Погода в Улуберии (Западная Бенгалия, Индия) (54 км)
Погода в Даймонд Харбор (Западная Бенгалия, Индия) (58 км)
Погода в Саткхире (Бангладеш) (65 км)
Погода в Халдии (Западная Бенгалия, Индия) (80 км)
Погода в Кришнанагаре (Западная Бенгалия, Индия) (84 км)
Погода в Бардхамане (Западная Бенгалия, Индия) (89 км)

Пояснения к столбцам:

Ветер - указаны скорость ветра в м/с - средняя за 10 мин, порывы в срок и между сроками (в фигурных скобках) и направление, откуда дует ветер: С - северный, СВ - северо-восточный, В - восточный, ЮВ - юго-восточный, Ю - южный, ЮЗ - юго-западный, З - западный, СЗ - северо-западный.
Видимость - горизонтальная дальность видимости в метрах или километрах. При видимости от 1 до 10 км при отсутствии осадков обычно наблюдается дымка, при ухудшении видимости до 1 км и менее - туман. В сухую погоду видимость может ухудшаться дымом, пылью или мглою.
Явления - указаны атмосферные явления, наблюдавшиеся в срок или в последний час перед сроком; фигурными скобками обозначены явления, наблюдавшиеся между сроками (за 1-3 часа до срока); квадратными скобками обозначены град или гололедные отложения с указанием их диаметра в мм.
Облачность - указаны через наклонную черту общая и нижняя облачность в баллах и высота нижней границы облаков в метрах; квадратными скобками обозначены формы облаков: Ci - перистые, Cs - перисто-слоистые, Cc - перисто-кучевые, Ac - высококучевые, As - высокослоистые, Sc - слоисто-кучевые, Ns - слоисто-дождевые, Cu - кучевые, Cb - кучево-дождевые. Подробнее классификацию облаков см. в Атласе облаков (PDF).
T - Температура воздуха - температура, измеренная на высоте 2 м над землей.
Td - Температура точки росы - температура, при понижении до которой содержащийся в воздухе водяной пар достигнет насыщения.
f - Относительная влажность воздуха - влажноcть воздуха, измеренная на высоте 2 м над землей.
Te - Эффективная температура - температура, которую ощущает одетый по сезону человек в тени. Характеристика душности погоды. При расчете учитывается влияние влажности воздуха и скорости ветра на теплоощущения человека.
Tes - Эффективная температура на солнце - температура, которую ощущает человек, с поправкой на солнечный нагрев. Характеристика знойности погоды. Зависит от высоты солнца над горизонтом, облачности и скорости ветра. Ночью, в пасмурную погоду, а также при ветре 12 м/с и более поправка равна нулю.
P - Атмосферное давление - приведенное к уровню моря атмосферное давление.
Po - Атмосферное давление - измеренное на уровне метеостанции атмосферное давление.
Tmin - Минимальная температура - минимум температуры воздуха на высоте 2 м над землей.
Tmax - Максимальная температура - максимум температуры воздуха на высоте 2 м над землей.
R - Количество осадков - Количество выпавших осадков за период времени, мм. При наведении курсора мыши на число - период времени, за который выпало указанное количество осадков.
R24 - Количество осадков - Количество выпавших осадков за 24 часа, мм.
S - Снежный покров - Высота снежного покрова, см. При наведении курсора мыши на число - состояние снежного покрова и степень покрытия местности в баллах.